Location: Casalecchio di Reno
(44.4760°N, 11.2757°E)
Time: 13:22:51
(UTC+02:00)

UWE-3 - Pass Details

Date: 21 June 2024
Orbit: 566 x 652 km, 97.8° (Epoch: 11 July)

Event Time Altitude Azimuth Distance (km) Brightness Sun altitude
Rises 04:37:52 0° 2° (N) 2,893 ? -8.0°
Reaches altitude 10° 04:40:18 10° 352° (N) 1,968 ? -7.7°
Maximum altitude 04:43:58 29° 292° (WNW) 1,113 ? -7.2°
Drops below altitude 10° 04:47:33 10° 233° (SW) 1,911 ? -6.8°
Enters shadow 04:47:53 - 230° (SW) 2,036 ? -6.7°
